EW8409 Weather Reports


Display with metric or nautical units.
time (UTC)temp
F
wind
direction
speed
MPH
gust
MPH
rain 1hr
in
rain 24hr
in
rain mn
in
humidity
%
barometer
mb
20260510191537 60 24 1.0 9.0 0.00 0.15 0.00 36 1016.1
20260510190023 60 37 0.0 4.0 0.00 0.15 0.00 29 1015.9
20260510184523 59 238 0.0 5.0 0.00 0.15 0.00 29 1015.8
20260510183022 59 199 0.0 3.0 0.00 0.15 0.00 31 1015.8
20260510181521 59 23 0.0 7.0 0.00 0.15 0.00 33 1015.7
20260510180019 59 197 0.0 8.0 0.00 0.15 0.00 33 1015.6
20260510174518 60 58 0.0 4.0 0.00 0.15 0.00 34 1015.5
20260510173015 59 264 0.0 5.0 0.00 0.15 0.00 36 1015.2
20260510171518 59 191 0.0 7.0 0.00 0.15 0.00 37 1015.1
20260510170013 59 9 1.0 6.0 0.00 0.15 0.00 36 1014.8
20260510164517 58 197 0.0 8.0 0.00 0.15 0.00 37 1015.0
20260510163011 57 274 0.0 3.0 0.00 0.15 0.00 41 1014.8
20260510161506 57 216 0.0 3.0 0.00 0.15 0.00 43 1014.8
20260510160007 56 335 0.0 0.0 0.00 0.15 0.00 48 1014.7
20260510154608 55 189 0.0 3.0 0.00 0.15 0.00 47 1014.7
20260510153055 55 11 0.0 0.0 0.00 0.15 0.00 50 1014.8
20260510151553 54 1 0.0 1.0 0.00 0.15 0.00 50 1014.5
20260510150052 53 335 0.0 5.0 0.00 0.15 0.00 52 1014.3
20260510144558 53 27 0.0 3.0 0.00 0.15 0.00 53 1014.1
20260510143044 52 14 0.0 2.0 0.00 0.15 0.00 55 1013.9
20260510141542 52 274 0.0 1.0 0.00 0.15 0.00 56 1013.6
20260510140039 52 10 0.0 2.0 0.00 0.15 0.00 54 1013.4
20260510134540 51 12 0.0 0.0 0.00 0.15 0.00 58 1013.3
20260510133034 51 347 0.0 0.0 0.00 0.15 0.00 58 1013.0
20260510131536 50 350 0.0 0.0 0.00 0.15 0.00 60 1013.1
20260510130031 49 135 0.0 0.0 0.00 0.15 0.00 60 1013.0
20260510124528 49 205 0.0 0.0 0.00 0.15 0.00 69 1012.9
20260510123033 49 181 0.0 0.0 0.00 0.15 0.00 71 1012.8
20260510121526 49 173 0.0 0.0 0.00 0.15 0.00 72 1012.8
20260510120027 48 160 0.0 0.0 0.00 0.15 0.00 72 1012.6
20260510114525 48 30 0.0 0.0 0.00 0.15 0.00 72 1012.5
20260510113021 48 222 0.0 0.0 0.00 0.15 0.00 74 1012.2
20260510111518 47 150 0.0 0.0 0.00 0.15 0.00 80 1012.0
20260510110030 47 174 0.0 0.0 0.00 0.15 0.00 83 1011.7
20260510104511 47 174 0.0 0.0 0.00 0.15 0.00 80 1010.9
20260510103011 47 150 0.0 0.0 0.00 0.15 0.00 81 1010.8
20260510101508 47 178 0.0 0.0 0.00 0.15 0.00 84 1010.7
20260510100006 47 336 0.0 0.0 0.00 0.15 0.00 83 1010.4
20260510094504 48 336 0.0 0.0 0.00 0.15 0.00 76 1009.6
20260510093120 48 8 0.0 0.0 0.00 0.15 0.00 72 1009.8
20260510091600 49 326 0.0 0.0 0.00 0.15 0.00 77 1009.7
20260510090058 49 313 0.0 0.0 0.00 0.15 0.00 77 1009.5
20260510084559 49 43 0.0 3.0 0.00 0.15 0.00 84 1009.3
20260510083053 50 2 0.0 0.0 0.00 0.15 0.00 93 1009.0
20260510081549 50 136 0.0 0.0 0.00 0.15 0.00 95 1009.1
20260510080045 50 192 0.0 0.0 0.00 0.15 0.00 95 1008.5
20260510074546 50 192 0.0 0.0 0.00 0.15 0.00 95 1008.4
20260510073046 50 192 0.0 0.0 0.00 0.15 0.00 95 1008.3
20260510071549 50 192 0.0 0.0 0.00 0.15 0.00 95 1008.0
20260510070039 50 192 0.0 0.0 0.00 0.15 0.00 94 1008.0
20260510064538 50 188 0.0 0.0 0.00 0.15 0.00 94 1007.8
20260510063036 50 210 0.0 0.0 0.00 0.15 0.00 94 1007.3
20260510061535 50 209 0.0 0.0 0.00 0.15 0.00 94 1007.4
20260510060032 49 199 0.0 0.0 0.00 0.15 0.00 94 1007.3
20260510054530 50 199 0.0 0.0 0.00 0.15 0.00 93 1007.0
20260510053048 50 196 0.0 0.0 0.00 0.15 0.00 93 1007.0
20260510051527 50 169 0.0 0.0 0.00 0.15 0.00 92 1006.7
20260510050026 51 188 0.0 1.0 0.00 0.15 0.00 92 1006.8
20260510044525 51 159 0.0 0.0 0.00 0.15 0.00 92 1006.8
20260510043037 51 205 0.0 0.0 0.00 0.15 0.00 93 1006.6
20260510041525 50 164 0.0 0.0 0.00 0.15 0.00 93 1006.6
20260510040031 50 214 0.0 0.0 0.00 0.15 0.00 93 1006.6
20260510034515 51 193 0.0 0.0 0.00 0.15 0.15 93 1006.3
20260510033014 51 220 0.0 0.0 0.00 0.15 0.15 93 1006.0
20260510031518 51 205 0.0 0.0 0.00 0.15 0.15 92 1005.9
20260510030013 51 207 0.0 0.0 0.00 0.15 0.15 92 1005.8
20260510024515 52 188 0.0 0.0 0.00 0.15 0.15 92 1005.8
20260510023011 52 188 0.0 0.0 0.00 0.15 0.15 92 1005.6
20260510021523 52 157 0.0 0.0 0.00 0.15 0.15 92 1005.6
20260510020011 52 148 0.0 0.0 0.04 0.15 0.15 92 1005.1
20260510014511 52 225 0.0 0.0 0.10 0.15 0.15 91 1005.5
20260510013012 52 165 0.0 0.0 0.13 0.15 0.15 92 1005.0
20260510011509 52 205 0.0 3.0 0.15 0.15 0.15 91 1005.0
20260510010009 53 181 0.0 1.0 0.11 0.11 0.11 89 1005.7
20260510004508 54 210 0.0 4.0 0.05 0.05 0.05 87 1005.6
20260510003007 56 115 0.0 2.0 0.02 0.02 0.02 79 1005.0
20260510001509 63 300 0.0 0.0 0.00 0.00 0.00 62 1004.4
20260510000005 63 176 0.0 0.0 0.00 0.00 0.00 59 1003.4
20260509234507 64 192 0.0 0.0 0.00 0.00 0.00 59 1002.9
20260509233005 64 162 0.0 0.0 0.00 0.00 0.00 57 1002.9
20260509231504 65 154 0.0 0.0 0.00 0.00 0.00 55 1003.0
20260509230007 65 172 0.0 0.0 0.00 0.00 0.00 55 1002.8
20260509224504 65 139 0.0 2.0 0.00 0.00 0.00 54 1003.0
20260509223002 66 136 0.0 3.0 0.00 0.00 0.00 54 1003.2
20260509221501 66 194 0.0 5.0 0.00 0.00 0.00 53 1003.2
20260509220006 66 223 0.0 4.0 0.00 0.00 0.00 54 1003.2
20260509214631 67 224 0.0 4.0 0.00 0.00 0.00 52 1003.3
20260509213103 67 193 0.0 6.0 0.00 0.00 0.00 51 1003.1
20260509211558 68 150 0.0 4.0 0.00 0.00 0.00 51 1003.1
20260509210106 69 76 0.0 8.0 0.00 0.00 0.00 50 1002.8
20260509204555 69 129 0.0 7.0 0.00 0.00 0.00 48 1002.9
20260509203102 69 140 0.0 5.0 0.00 0.00 0.00 50 1003.2
20260509201552 68 177 0.0 9.0 0.00 0.00 0.00 51 1003.3
20260509200049 68 143 0.0 3.0 0.00 0.00 0.00 51 1003.7
20260509194550 68 164 0.0 2.0 0.00 0.00 0.00 50 1003.8
20260509193054 68 162 0.0 1.0 0.00 0.00 0.00 52 1003.6